TimeMST,TemperatureF,Dew PointF,Humidity,Sea Level PressureIn,VisibilityMPH,Wind Direction,Wind SpeedMPH,Gust SpeedMPH,PrecipitationIn,Events,Conditions,WindDirDegrees,DateUTC
12:15 AM,30.2,8.6,40,-9999,10.0,WSW,5.8,-,N/A,,Clear,240,2013-01-21 07:15:00
12:35 AM,30.2,8.6,40,-9999,10.0,West,4.6,-,N/A,,Clear,270,2013-01-21 07:35:00
12:55 AM,30.2,8.6,40,-9999,10.0,West,4.6,-,N/A,,Clear,260,2013-01-21 07:55:00
1:15 AM,30.2,8.6,40,-9999,10.0,West,3.5,-,N/A,,Clear,270,2013-01-21 08:15:00
1:35 AM,30.2,8.6,40,-9999,10.0,Calm,Calm,-,N/A,,Clear,0,2013-01-21 08:35:00
1:55 AM,30.2,8.6,40,-9999,10.0,Calm,Calm,-,N/A,,Clear,0,2013-01-21 08:55:00
2:15 AM,32.0,8.6,38,-9999,10.0,SSW,3.5,-,N/A,,Clear,210,2013-01-21 09:15:00
2:35 AM,30.2,8.6,40,-9999,10.0,SW,3.5,-,N/A,,Clear,230,2013-01-21 09:35:00
2:55 AM,30.2,8.6,40,-9999,10.0,Calm,Calm,-,N/A,,Clear,0,2013-01-21 09:55:00
3:15 AM,32.0,10.4,41,-9999,10.0,Calm,Calm,-,N/A,,Clear,0,2013-01-21 10:15:00
3:35 AM,28.4,10.4,47,-9999,10.0,SW,3.5,-,N/A,,Clear,230,2013-01-21 10:35:00
3:55 AM,30.2,10.4,44,-9999,10.0,WSW,5.8,-,N/A,,Clear,250,2013-01-21 10:55:00
4:15 AM,30.2,8.6,40,-9999,10.0,WSW,4.6,-,N/A,,Clear,250,2013-01-21 11:15:00
4:35 AM,30.2,8.6,40,-9999,10.0,WSW,5.8,-,N/A,,Clear,250,2013-01-21 11:35:00
4:55 AM,30.2,8.6,40,-9999,10.0,West,4.6,-,N/A,,Clear,260,2013-01-21 11:55:00
5:15 AM,30.2,8.6,40,-9999,10.0,Calm,Calm,-,N/A,,Clear,0,2013-01-21 12:15:00
5:35 AM,28.4,8.6,43,-9999,10.0,Calm,Calm,-,N/A,,Clear,0,2013-01-21 12:35:00
5:55 AM,26.6,10.4,51,-9999,10.0,North,4.6,-,N/A,,Clear,360,2013-01-21 12:55:00
6:15 AM,26.6,10.4,51,-9999,10.0,North,4.6,-,N/A,,Clear,360,2013-01-21 13:15:00
6:35 AM,28.4,8.6,43,-9999,10.0,Calm,Calm,-,N/A,,Clear,0,2013-01-21 13:35:00
6:55 AM,28.4,10.4,47,-9999,10.0,NW,5.8,-,N/A,,Clear,310,2013-01-21 13:55:00
7:15 AM,30.2,10.4,44,-9999,10.0,NNW,3.5,-,N/A,,Clear,330,2013-01-21 14:15:00
7:35 AM,32.0,10.4,41,-9999,10.0,Calm,Calm,-,N/A,,Clear,0,2013-01-21 14:35:00
7:55 AM,30.2,8.6,40,-9999,10.0,WNW,4.6,-,N/A,,Clear,300,2013-01-21 14:55:00
8:15 AM,32.0,8.6,38,-9999,10.0,West,5.8,-,N/A,,Clear,260,2013-01-21 15:15:00
8:35 AM,32.0,8.6,38,-9999,10.0,West,4.6,-,N/A,,Clear,280,2013-01-21 15:35:00
8:55 AM,32.0,8.6,38,-9999,10.0,West,4.6,-,N/A,,Clear,260,2013-01-21 15:55:00
9:15 AM,30.2,5.0,34,-9999,10.0,WSW,6.9,-,N/A,,Clear,250,2013-01-21 16:15:00
9:35 AM,30.2,3.2,32,-9999,10.0,WSW,5.8,-,N/A,,Clear,250,2013-01-21 16:35:00
9:55 AM,32.0,3.2,30,-9999,10.0,WSW,6.9,-,N/A,,Clear,250,2013-01-21 16:55:00
10:15 AM,32.0,5.0,32,-9999,10.0,WSW,6.9,-,N/A,,Clear,250,2013-01-21 17:15:00
10:35 AM,32.0,5.0,32,-9999,10.0,WSW,8.1,-,N/A,,Clear,240,2013-01-21 17:35:00
10:55 AM,32.0,5.0,32,-9999,10.0,WSW,12.7,-,N/A,,Clear,250,2013-01-21 17:55:00
11:15 AM,32.0,6.8,35,-9999,10.0,WSW,12.7,-,N/A,,Clear,250,2013-01-21 18:15:00
11:35 AM,33.8,8.6,35,-9999,10.0,WSW,6.9,-,N/A,,Clear,240,2013-01-21 18:35:00
11:55 AM,33.8,8.6,35,-9999,10.0,WSW,11.5,-,N/A,,Clear,250,2013-01-21 18:55:00
12:15 PM,33.8,10.4,38,-9999,10.0,WSW,11.5,-,N/A,,Clear,240,2013-01-21 19:15:00
12:35 PM,33.8,10.4,38,-9999,10.0,WSW,12.7,-,N/A,,Clear,250,2013-01-21 19:35:00
12:55 PM,33.8,12.2,41,-9999,10.0,WSW,11.5,-,N/A,,Clear,250,2013-01-21 19:55:00
1:15 PM,32.0,12.2,44,-9999,10.0,WSW,13.8,-,N/A,,Clear,250,2013-01-21 20:15:00
1:35 PM,32.0,10.4,41,-9999,10.0,WSW,15.0,-,N/A,,Clear,250,2013-01-21 20:35:00
1:55 PM,32.0,10.4,41,-9999,10.0,WSW,16.1,21.9,N/A,,Clear,250,2013-01-21 20:55:00
2:15 PM,33.8,10.4,38,-9999,10.0,West,15.0,19.6,N/A,,Clear,260,2013-01-21 21:15:00
2:35 PM,32.0,10.4,41,-9999,10.0,WSW,13.8,-,N/A,,Clear,250,2013-01-21 21:35:00
2:55 PM,33.8,10.4,38,-9999,10.0,West,12.7,-,N/A,,Clear,260,2013-01-21 21:55:00
3:15 PM,32.0,12.2,44,-9999,10.0,WSW,12.7,-,N/A,,Clear,250,2013-01-21 22:15:00
3:35 PM,33.8,12.2,41,-9999,10.0,WSW,10.4,-,N/A,,Clear,250,2013-01-21 22:35:00
3:55 PM,32.0,10.4,41,-9999,10.0,WSW,11.5,-,N/A,,Clear,250,2013-01-21 22:55:00
4:15 PM,32.0,8.6,38,-9999,10.0,WSW,11.5,-,N/A,,Clear,250,2013-01-21 23:15:00
4:35 PM,32.0,8.6,38,-9999,10.0,WSW,12.7,-,N/A,,Clear,250,2013-01-21 23:35:00
4:55 PM,32.0,8.6,38,-9999,10.0,West,11.5,-,N/A,,Clear,260,2013-01-21 23:55:00
5:15 PM,32.0,8.6,38,-9999,10.0,West,10.4,16.1,N/A,,Clear,260,2013-01-22 00:15:00
5:35 PM,32.0,6.8,35,-9999,10.0,West,10.4,-,N/A,,Clear,260,2013-01-22 00:35:00
5:55 PM,32.0,5.0,32,-9999,10.0,West,10.4,-,N/A,,Clear,260,2013-01-22 00:55:00
6:15 PM,32.0,5.0,32,-9999,10.0,West,12.7,-,N/A,,Clear,260,2013-01-22 01:15:00
6:35 PM,32.0,5.0,32,-9999,10.0,West,12.7,-,N/A,,Clear,260,2013-01-22 01:35:00
7:15 PM,32.0,3.2,30,-9999,10.0,West,11.5,18.4,N/A,,Clear,270,2013-01-22 02:15:00
7:35 PM,30.2,3.2,32,-9999,10.0,West,11.5,-,N/A,,Clear,260,2013-01-22 02:35:00
7:55 PM,30.2,3.2,32,-9999,10.0,West,11.5,-,N/A,,Clear,260,2013-01-22 02:55:00
8:15 PM,32.0,3.2,30,-9999,10.0,West,16.1,23.0,N/A,,Clear,260,2013-01-22 03:15:00
8:35 PM,32.0,3.2,30,-9999,10.0,West,13.8,-,N/A,,Clear,260,2013-01-22 03:35:00
8:55 PM,30.2,3.2,32,-9999,10.0,West,12.7,-,N/A,,Clear,260,2013-01-22 03:55:00
9:15 PM,30.2,3.2,32,-9999,10.0,WSW,15.0,-,N/A,,Clear,250,2013-01-22 04:15:00
9:35 PM,28.4,3.2,34,-9999,10.0,WSW,13.8,-,N/A,,Clear,250,2013-01-22 04:35:00
9:55 PM,28.4,3.2,34,-9999,10.0,West,9.2,-,N/A,,Clear,260,2013-01-22 04:55:00
10:15 PM,30.2,-0.4,27,-9999,10.0,West,9.2,-,N/A,,Clear,260,2013-01-22 05:15:00
10:35 PM,32.0,-4.0,21,-9999,10.0,WSW,11.5,-,N/A,,Clear,250,2013-01-22 05:35:00
10:55 PM,32.0,-5.8,20,-9999,10.0,West,9.2,-,N/A,,Clear,260,2013-01-22 05:55:00
11:15 PM,33.8,-7.6,17,-9999,10.0,West,11.5,18.4,N/A,,Clear,270,2013-01-22 06:15:00
11:35 PM,35.6,-9.4,14,-9999,10.0,West,9.2,-,N/A,,Clear,280,2013-01-22 06:35:00
11:55 PM,35.6,-9.4,14,-9999,10.0,West,6.9,-,N/A,,Clear,280,2013-01-22 06:55:00